Content
SEND FEEDBACK

Daily
Averages
Monthly
Summary
United States of America

DALLAS, OREGON


Home > North America > United States > Oregon
Elevation: 399 feet     Latitude: 44 56N     Longitude: 123 19W

WEATHER
 
SELECT A DAY
Number of Records: 203,506;   Date Range: 1/1/95 - 10/22/14
 
SHARE

PRINT THIS DATA

[ ← Previous Day ]
WEATHER ALMANAC - JANUARY 31, 2013
[ Next Day → ]
[ °C ]   °F
Weather ElementAverageHighLow
Temperature47.2 °F55.4 °F (3:03 pm)43 °F (7:56 am)
Dewpoint44.2 °F46 °F (9:56 am)42.1 °F (3:56 pm)
Humidity90.2 %100 % (1:09 am)63 % (3:03 pm)
Barometer30.41 in30.46 in (1:56 am)30.34 in (6:56 pm)
Wind Speed2.7 mph9.2 mph (12:56 pm)
Weather ElementAverage
Visibility7.7 mi
Wind DirectionE (94.6 °)

Weather ElementTotal
Precipitation---
Heating Degree Days15.8 (Base 65)
Averaged from 37 records on January 31, 2013
WEATHER CONDITIONS BREAKOUT
WIND DIRECTION BREAKOUT
WEATHER BY HOUR - JANUARY 31, 2013
[ °C ]   °F
Local TimeTemperatureDewpointHumidityBarometerVisibilityWind DirectionWind SpeedGust SpeedPrecipitationEventsConditions
1:09 AM44.6 °F44.6 °F100 %30.45 in10.0 miSouth (170°)3.5 mphOvercast
1:56 AM45.0 °F45.0 °F100 %30.46 in7.0 miCalmOvercast
2:37 AM44.6 °F44.6 °F100 %30.45 in8.0 miSouth (170°)3.5 mphOvercast
2:49 AM46.4 °F44.6 °F93 %30.45 in9.0 miSouth (170°)3.5 mphOvercast
2:56 AM46.0 °F45.0 °F96 %30.45 in8.0 miSSE (160°)3.5 mphOvercast
3:05 AM44.6 °F44.6 °F100 %30.44 in7.0 miCalmOvercast
3:56 AM45.0 °F44.1 °F97 %30.44 in7.0 miCalmOvercast
4:03 AM44.6 °F44.6 °F100 %30.44 in9.0 miCalmOvercast
4:52 AM44.6 °F44.6 °F100 %30.43 in4.0 miCalmOvercast
4:56 AM44.1 °F44.1 °F100 %30.44 in4.0 miCalmOvercast
5:06 AM44.6 °F44.6 °F100 %30.43 in3.0 miCalmOvercast
5:25 AM44.6 °F44.6 °F100 %30.43 in3.0 miCalmOvercast
5:36 AM44.6 °F44.6 °F100 %30.42 in3.0 miCalmOvercast
5:46 AM44.6 °F44.6 °F100 %30.43 in1.5 miCalmOvercast
5:56 AM44.1 °F44.1 °F100 %30.43 in1.5 miCalmOvercast
6:05 AM44.6 °F44.6 °F100 %30.42 in1.0 miCalmOvercast
6:15 AM44.6 °F42.8 °F93 %30.42 in2.5 miSE (140°)3.5 mphOvercast
6:22 AM44.6 °F42.8 °F93 %30.42 in7.0 miCalmOvercast
6:56 AM44.1 °F44.1 °F100 %30.43 in10.0 miCalmOvercast
7:56 AM43.0 °F43.0 °F100 %30.43 in9.0 miCalmOvercast
8:56 AM45.0 °F44.1 °F97 %30.44 in10.0 miSSE (150°)3.5 mphOvercast
9:23 AM46.4 °F44.6 °F93 %30.43 in10.0 miSSE (150°)3.5 mphOvercast
9:56 AM46.9 °F46.0 °F97 %30.44 in10.0 miSSE (160°)4.6 mphOvercast
10:56 AM48.9 °F46.0 °F90 %30.43 in10.0 miSSE (160°)6.9 mphMostly Cloudy
11:56 AM51.1 °F46.0 °F83 %30.41 in10.0 miSouth (180°)3.5 mphMostly Cloudy
12:56 PM53.1 °F46.0 °F77 %30.39 in10.0 miSE (140°)9.2 mphMostly Cloudy
1:56 PM53.1 °F44.1 °F71 %30.38 in10.0 miSouth (170°)4.6 mphMostly Cloudy
2:56 PM55.0 °F43.0 °F64 %30.37 in10.0 miVariable3.5 mphMostly Cloudy
3:03 PM55.4 °F42.8 °F63 %30.36 in10.0 miWSW (240°)4.6 mphOvercast
3:56 PM54.0 °F42.1 °F64 %30.36 in10.0 miSSW (210°)5.8 mphMostly Cloudy
4:56 PM53.1 °F43.0 °F69 %30.35 in10.0 miSouth (190°)4.6 mphOvercast
5:56 PM51.1 °F44.1 °F77 %30.35 in10.0 miSouth (170°)4.6 mphOvercast
6:56 PM51.1 °F43.0 °F74 %30.34 in10.0 miSouth (190°)5.8 mphOvercast
7:56 PM48.9 °F42.1 °F77 %30.34 in10.0 miSSE (150°)4.6 mphOvercast
8:56 PM48.0 °F44.1 °F86 %30.35 in10.0 miSE (140°)5.8 mphOvercast
10:56 PM46.9 °F44.1 °F90 %30.35 in10.0 miSSE (150°)3.5 mphOvercast
11:56 PM46.0 °F44.1 °F93 %30.35 in10.0 miSE (140°)4.6 mphOvercast
Hourly data recorded from KSLE, located miles away from Dallas, Oregon







STORIES FROM OUR PARTNERS